Temp
-8 -9 -9 -9 -10 -11 -10 -10 -11 -11 -11 -11 -11 -12 -12 -11 -11 -11 -11 -11 -12 -12 -12 -12 -12 -12 -12 -12 -12 -13 -13 -13 -13 -13 -13 -12 -12 -12 -12 -12 -13 -13 -13 -13 -13 -13 -13 -13 -13 -13 -14 -14 -14 -14 -14 -13 -13 -13 -13 -13 -13 -14
-9 -9 -9 -10 -10 -11 -10 -11 -11 -12 -11 -11 -12 -12 -12 -12 -12 -12 -12 -12 -12 -12 -12 -12 -12 -12 -12 -12 -12 -13 -13 -13 -13 -13 -13 -12 -12 -12 -12 -12 -12 -13 -13 -13 -13 -13 -13 -13 -13 -13 -13 -14 -14 -14 -13 -13 -13 -13 -13 -13 -14 -14
-9 -9 -10 -11 -11 -11 -11 -12 -12 -12 -12 -12 -12 -12 -12 -12 -12 -12 -12 -12 -12 -12 -12 -12 -12 -12 -12 -12 -12 -13 -13 -13 -13 -13 -13 -12 -12 -12 -12 -13 -12 -12 -13 -13 -13 -13 -13 -13 -13 -13 -13 -13 -13 -13 -13 -13 -13 -13 -13 -13 -14 -14
-9 -10 -10 -11 -11 -11 -11 -12 -12 -12 -12 -12 -12 -12 -12 -12 -12 -12 -12 -12 -12 -12 -12 -12 -12 -12 -13 -12 -12 -13 -13 -13 -13 -13 -13 -12 -12 -12 -13 -13 -13 -13 -13 -13 -13 -13 -13 -13 -13 -13 -13 -13 -13 -13 -13 -13 -13 -13 -13 -14 -14 -14
-10 -11 -11 -11 -11 -12 -11 -12 -12 -12 -12 -12 -12 -12 -12 -12 -12 -12 -12 -12 -12 -12 -12 -13 -13 -13 -13 -13 -13 -13 -13 -13 -13 -13 -13 -13 -12 -12 -13 -13 -13 -13 -13 -13 -13 -13 -13 -13 -13 -13 -13 -13 -13 -13 -13 -13 -13 -13 -13 -14 -14 -14
-11 -12 -12 -12 -12 -11 -11 -12 -12 -12 -12 -12 -12 -12 -13 -12 -12 -12 -12 -12 -12 -12 -12 -13 -13 -13 -13 -13 -13 -13 -13 -13 -13 -13 -13 -13 -13 -13 -13 -13 -13 -13 -13 -13 -13 -13 -13 -13 -13 -13 -13 -13 -13 -13 -13 -13 -13 -13 -13 -13 -13 -14
-12 -11 -12 -12 -12 -11 -12 -12 -12 -12 -12 -12 -12 -12 -12 -12 -12 -12 -12 -11 -12 -12 -12 -13 -13 -13 -13 -13 -13 -13 -13 -13 -13 -13 -13 -13 -13 -13 -13 -13 -13 -13 -13 -13 -13 -13 -13 -13 -13 -13 -13 -13 -13 -13 -13 -13 -13 -13 -13 -13 -14 -14
-12 -12 -12 -12 -12 -12 -12 -12 -12 -12 -12 -12 -12 -12 -13 -12 -12 -12 -11 -12 -12 -12 -13 -13 -13 -13 -13 -13 -13 -13 -13 -13 -13 -13 -13 -13 -13 -13 -13 -13 -13 -13 -13 -13 -13 -13 -13 -13 -13 -13 -13 -13 -13 -13 -13 -13 -13 -13 -13 -13 -13 -14
-12 -12 -12 -12 -12 -12 -12 -12 -12 -12 -12 -12 -12 -13 -13 -13 -12 -12 -12 -12 -12 -12 -13 -13 -13 -13 -13 -13 -13 -13 -13 -13 -13 -13 -13 -13 -13 -13 -13 -13 -13 -13 -13 -13 -13 -13 -13 -14 -14 -13 -13 -13 -13 -13 -13 -13 -13 -13 -13 -13 -13 -14
-12 -12 -12 -12 -12 -12 -12 -12 -12 -12 -13 -13 -13 -13 -13 -13 -13 -12 -12 -12 -13 -13 -13 -13 -13 -13 -13 -13 -13 -13 -13 -13 -13 -13 -13 -13 -13 -13 -13 -13 -13 -13 -13 -13 -13 -13 -13 -13 -14 -14 -13 -13 -13 -13 -13 -13 -13 -13 -13 -13 -14 -14
-12 -12 -12 -12 -12 -12 -12 -12 -13 -13 -13 -13 -13 -13 -13 -13 -13 -12 -12 -12 -13 -13 -12 -12 -12 -13 -13 -13 -13 -13 -13 -13 -13 -13 -13 -13 -13 -13 -14 -14 -14 -13 -13 -13 -13 -13 -13 -13 -13 -13 -13 -13 -13 -13 -13 -13 -13 -13 -13 -13 -13 -14
-12 -12 -12 -12 -12 -12 -12 -13 -13 -13 -13 -13 -13 -13 -13 -13 -13 -13 -12 -12 -13 -13 -12 -12 -12 -12 -12 -13 -13 -13 -13 -13 -13 -13 -13 -13 -13 -13 -13 -14 -14 -13 -13 -13 -13 -13 -13 -13 -13 -13 -13 -13 -13 -13 -13 -13 -13 -13 -13 -13 -13 -14
-12 -12 -12 -12 -12 -12 -12 -12 -13 -13 -13 -13 -13 -13 -13 -13 -13 -13 -13 -13 -13 -12 -12 -13 -12 -12 -12 -13 -13 -13 -13 -13 -13 -13 -13 -13 -13 -13 -13 -13 -14 -14 -13 -13 -13 -13 -13 -13 -13 -13 -13 -13 -13 -13 -13 -13 -13 -13 -13 -13 -14 -14
-12 -12 -12 -12 -12 -12 -12 -12 -13 -13 -13 -13 -13 -13 -13 -13 -13 -13 -13 -13 -12 -12 -12 -12 -12 -12 -12 -13 -13 -13 -13 -13 -13 -13 -13 -13 -13 -14 -14 -14 -14 -14 -13 -13 -13 -13 -13 -13 -13 -13 -13 -13 -13 -13 -14 -14 -13 -13 -13 -13 -14 -14
-12 -12 -12 -12 -12 -12 -12 -13 -13 -13 -13 -13 -13 -13 -13 -13 -13 -13 -13 -13 -13 -12 -12 -12 -12 -12 -12 -13 -13 -13 -13 -13 -13 -14 -14 -14 -13 -14 -14 -14 -14 -14 -14 -14 -14 -13 -13 -13 -13 -13 -13 -13 -13 -13 -14 -14 -13 -13 -13 -14 -14 -15
-12 -12 -12 -12 -12 -12 -12 -13 -13 -13 -13 -13 -13 -13 -13 -13 -13 -13 -13 -13 -13 -12 -12 -12 -12 -12 -12 -12 -13 -13 -13 -13 -14 -14 -14 -14 -14 -14 -14 -14 -14 -14 -13 -14 -14 -14 -14 -13 -13 -14 -13 -13 -13 -13 -14 -14 -14 -14 -14 -14 -14 -14
-12 -12 -13 -13 -12 -12 -12 -13 -13 -13 -13 -13 -13 -13 -13 -14 -14 -13 -13 -13 -13 -13 -13 -12 -12 -12 -12 -12 -12 -13 -13 -13 -14 -14 -14 -14 -14 -14 -13 -14 -14 -13 -13 -14 -14 -14 -14 -14 -13 -14 -14 -14 -14 -14 -14 -14 -14 -14 -14 -14 -14 -14
-12 -12 -13 -13 -12 -12 -12 -13 -13 -13 -13 -13 -13 -14 -14 -14 -14 -13 -13 -13 -13 -13 -13 -13 -13 -12 -12 -12 -12 -13 -13 -14 -14 -14 -14 -14 -14 -14 -14 -14 -14 -14 -14 -14 -14 -14 -14 -14 -14 -14 -14 -14 -14 -14 -14 -14 -14 -14 -14 -14 -14 -14
-12 -12 -13 -12 -12 -12 -13 -13 -13 -13 -13 -13 -13 -14 -14 -14 -14 -13 -13 -13 -13 -13 -13 -13 -13 -12 -12 -12 -12 -12 -13 -13 -14 -14 -14 -14 -14 -14 -14 -14 -14 -14 -14 -14 -14 -14 -14 -14 -14 -14 -14 -14 -14 -14 -14 -14 -14 -14 -14 -14 -14 -14
-13 -13 -13 -12 -12 -13 -13 -13 -13 -13 -13 -14 -14 -14 -14 -14 -14 -14 -14 -13 -13 -13 -13 -13 -13 -13 -13 -12 -12 -13 -13 -13 -14 -14 -14 -13 -14 -14 -14 -14 -14 -14 -14 -14 -14 -14 -14 -14 -14 -14 -14 -14 -14 -14 -14 -14 -14 -14 -14 -14 -14 -14
-13 -13 -13 -12 -12 -12 -13 -13 -13 -13 -13 -14 -14 -14 -14 -14 -14 -14 -14 -13 -13 -13 -13 -13 -13 -13 -13 -13 -13 -13 -13 -13 -13 -14 -14 -13 -14 -14 -14 -14 -14 -14 -14 -14 -14 -14 -14 -14 -13 -14 -14 -14 -14 -14 -14 -14 -14 -14 -14 -14 -14 -14
-13 -13 -13 -13 -12 -12 -13 -13 -13 -13 -13 -14 -14 -14 -14 -14 -14 -14 -14 -14 -14 -13 -13 -13 -13 -13 -13 -13 -13 -13 -13 -13 -13 -14 -14 -14 -14 -14 -14 -14 -14 -14 -14 -14 -14 -14 -14 -13 -14 -14 -14 -14 -14 -14 -14 -14 -14 -14 -14 -14 -14 -14
-13 -13 -13 -13 -13 -13 -13 -13 -13 -13 -13 -14 -14 -14 -14 -14 -14 -14 -14 -14 -14 -14 -14 -14 -13 -13 -13 -13 -13 -13 -13 -13 -13 -13 -14 -14 -14 -14 -14 -14 -14 -14 -14 -14 -14 -14 -14 -13 -14 -14 -14 -14 -14 -14 -14 -14 -14 -14 -14 -14 -14 -14
-13 -13 -13 -13 -13 -13 -13 -13 -13 -14 -14 -14 -14 -14 -14 -14 -14 -14 -14 -14 -14 -14 -14 -14 -14 -13 -13 -13 -13 -13 -13 -13 -13 -13 -13 -14 -14 -14 -14 -14 -14 -14 -14 -14 -14 -14 -13 -13 -13 -14 -14 -14 -14 -14 -14 -14 -14 -14 -14 -14 -14 -14
-13 -13 -13 -13 -13 -13 -14 -14 -14 -14 -14 -14 -14 -14 -14 -14 -14 -14 -14 -14 -14 -14 -14 -14 -14 -14 -14 -13 -13 -13 -13 -13 -13 -13 -13 -13 -14 -14 -14 -14 -14 -14 -14 -14 -13 -13 -13 -13 -14 -14 -14 -14 -14 -14 -14 -14 -14 -14 -14 -14 -14 -14
-13 -13 -13 -14 -13 -14 -14 -14 -14 -14 -14 -14 -14 -14 -14 -14 -14 -14 -14 -14 -14 -14 -14 -14 -14 -14 -14 -14 -13 -13 -13 -13 -13 -13 -13 -13 -13 -14 -14 -14 -14 -14 -14 -14 -13 -13 -13 -14 -14 -14 -14 -14 -14 -14 -14 -14 -14 -14 -14 -14 -14 -14
-14 -14 -14 -14 -14 -14 -14 -14 -15 -15 -14 -14 -14 -14 -14 -14 -14 -14 -14 -14 -14 -14 -14 -14 -14 -14 -14 -14 -14 -13 -13 -13 -13 -13 -13 -13 -13 -13 -13 -14 -14 -14 -14 -14 -14 -14 -14 -14 -14 -14 -14 -14 -14 -14 -14 -14 -14 -14 -14 -14 -14 -14
-14 -15 -15 -15 -14 -14 -15 -15 -15 -15 -15 -15 -14 -14 -14 -14 -14 -14 -14 -14 -14 -14 -14 -14 -14 -14 -14 -14 -14 -14 -14 -14 -14 -13 -13 -13 -13 -13 -14 -14 -14 -14 -14 -14 -14 -14 -14 -14 -14 -14 -14 -14 -14 -14 -14 -14 -14 -14 -14 -14 -14 -14
-15 -15 -15 -15 -15 -15 -15 -15 -15 -15 -15 -15 -15 -15 -14 -14 -14 -14 -14 -14 -14 -14 -14 -14 -14 -14 -14 -14 -14 -14 -14 -14 -14 -14 -14 -13 -13 -13 -13 -14 -14 -14 -14 -14 -14 -14 -14 -14 -14 -14 -14 -14 -14 -14 -14 -14 -14 -14 -14 -14 -14 -14
-15 -15 -15 -15 -15 -15 -15 -15 -15 -15 -15 -15 -15 -15 -14 -14 -14 -14 -14 -14 -14 -14 -14 -14 -14 -14 -14 -14 -14 -14 -14 -14 -14 -14 -14 -14 -13 -13 -13 -14 -14 -14 -14 -14 -14 -14 -14 -14 -14 -14 -14 -14 -14 -14 -14 -14 -14 -14 -14 -14 -14 -14
-15 -15 -15 -15 -15 -15 -15 -15 -15 -15 -15 -15 -15 -15 -15 -14 -15 -15 -15 -15 -14 -14 -14 -14 -14 -14 -14 -14 -14 -14 -14 -14 -14 -14 -14 -13 -13 -13 -13 -13 -14 -14 -14 -14 -14 -14 -14 -14 -14 -14 -14 -14 -14 -14 -14 -14 -14 -14 -14 -14 -14 -14
-15 -15 -15 -15 -15 -15 -15 -15 -15 -15 -15 -15 -15 -15 -15 -15 -15 -15 -15 -15 -14 -14 -14 -14 -14 -14 -14 -14 -14 -14 -14 -14 -14 -14 -14 -14 -13 -13 -13 -13 -13 -14 -14 -14 -14 -14 -14 -14 -14 -14 -14 -14 -14 -14 -14 -14 -14 -14 -14 -15 -15 -14
-15 -15 -15 -15 -15 -15 -15 -15 -15 -15 -15 -15 -15 -15 -15 -15 -15 -15 -15 -15 -14 -14 -14 -14 -14 -14 -14 -14 -14 -14 -14 -14 -14 -14 -14 -14 -14 -14 -14 -14 -14 -14 -14 -14 -14 -14 -14 -14 -14 -14 -14 -15 -15 -15 -15 -15 -15 -15 -15 -15 -15 -15
-15 -15 -15 -15 -15 -15 -14 -15 -15 -15 -15 -15 -14 -15 -15 -15 -15 -15 -15 -14 -14 -14 -14 -14 -14 -14 -14 -14 -14 -14 -14 -14 -14 -14 -14 -14 -14 -14 -14 -14 -14 -14 -14 -14 -14 -14 -14 -14 -14 -15 -15 -15 -15 -15 -15 -15 -15 -15 -15 -15 -15 -15
-15 -15 -15 -15 -15 -15 -15 -15 -15 -15 -15 -15 -15 -15 -15 -15 -15 -15 -15 -14 -14 -14 -14 -14 -14 -14 -14 -14 -14 -14 -14 -14 -14 -14 -14 -14 -14 -14 -14 -14 -14 -14 -14 -14 -14 -14 -15 -15 -15 -15 -15 -15 -15 -15 -15 -15 -15 -15 -15 -15 -15 -15
-15 -15 -15 -15 -15 -15 -15 -15 -15 -15 -15 -15 -15 -15 -15 -15 -15 -15 -15 -14 -14 -14 -14 -14 -14 -14 -14 -14 -14 -14 -14 -14 -14 -14 -14 -14 -15 -14 -14 -14 -14 -14 -14 -15 -15 -15 -15 -15 -15 -15 -15 -15 -15 -15 -15 -15 -15 -15 -15 -15 -15 -15
-15 -15 -15 -15 -15 -15 -15 -15 -15 -15 -15 -15 -15 -15 -15 -15 -15 -15 -15 -15 -14 -14 -14 -14 -14 -14 -14 -14 -14 -14 -15 -15 -15 -15 -15 -15 -15 -15 -15 -15 -15 -15 -15 -15 -15 -15 -15 -15 -15 -15 -16 -16 -16 -16 -16 -16 -16 -16 -16 -16 -16 -16
Height
5818 5816 5814 5812 5810 5809 5809 5806 5805 5807 5807 5809 5811 5811 5812 5812 5811 5810 5810 5810 5810 5810 5811 5813 5814 5815 5816 5817 5818 5818 5819 5818 5818 5818 5818 5817 5817 5817 5817 5817 5818 5818 5818 5818 5819 5819 5820 5820 5821 5822 5823 5824 5824 5825 5825 5826 5827 5827 5827 5829 5830 5830
5816 5814 5810 5809 5808 5808 5808 5804 5805 5807 5807 5808 5809 5810 5810 5810 5809 5808 5809 5809 5809 5810 5810 5811 5813 5814 5815 5815 5816 5816 5816 5816 5816 5816 5816 5815 5815 5815 5816 5816 5816 5816 5817 5817 5817 5818 5818 5818 5819 5820 5821 5822 5823 5823 5824 5825 5825 5825 5826 5828 5829 5828
5814 5812 5807 5807 5807 5808 5807 5803 5804 5807 5807 5807 5807 5808 5808 5808 5807 5807 5807 5809 5810 5809 5809 5810 5811 5812 5813 5813 5813 5814 5814 5814 5814 5814 5814 5814 5814 5814 5814 5814 5814 5815 5815 5815 5816 5816 5816 5816 5816 5818 5819 5820 5821 5822 5822 5823 5824 5823 5825 5827 5827 5827
5810 5808 5807 5807 5806 5806 5806 5803 5804 5805 5805 5805 5805 5806 5806 5806 5806 5806 5807 5808 5809 5809 5809 5810 5811 5811 5812 5812 5811 5811 5812 5812 5813 5813 5813 5813 5813 5812 5812 5812 5812 5812 5812 5813 5813 5814 5814 5814 5814 5816 5817 5818 5819 5820 5821 5822 5822 5822 5824 5826 5826 5827
5805 5805 5806 5806 5803 5804 5805 5803 5803 5803 5804 5804 5803 5804 5804 5804 5804 5804 5806 5806 5807 5807 5807 5807 5809 5809 5809 5809 5809 5808 5809 5809 5810 5811 5811 5811 5811 5811 5810 5810 5810 5811 5811 5811 5812 5812 5812 5812 5813 5814 5816 5817 5818 5819 5819 5820 5821 5821 5823 5825 5825 5826
5803 5804 5804 5802 5802 5804 5803 5802 5802 5802 5803 5803 5801 5802 5803 5804 5804 5804 5806 5806 5806 5806 5804 5805 5807 5807 5806 5806 5806 5806 5806 5807 5807 5808 5809 5810 5810 5809 5809 5809 5809 5809 5809 5810 5810 5810 5811 5811 5812 5813 5814 5815 5816 5817 5818 5819 5819 5819 5822 5824 5824 5824
5804 5804 5801 5801 5802 5803 5801 5800 5801 5802 5802 5801 5800 5801 5803 5804 5804 5805 5807 5807 5807 5806 5806 5806 5806 5805 5805 5805 5805 5806 5805 5805 5806 5806 5807 5808 5808 5808 5808 5807 5807 5807 5808 5808 5808 5809 5809 5810 5810 5811 5812 5814 5815 5816 5816 5817 5817 5818 5820 5821 5822 5822
5802 5802 5801 5800 5801 5800 5800 5800 5800 5801 5801 5800 5799 5800 5803 5804 5804 5805 5807 5806 5806 5806 5806 5806 5805 5804 5804 5804 5804 5805 5804 5804 5804 5805 5805 5806 5806 5806 5806 5807 5806 5805 5806 5806 5807 5807 5807 5808 5809 5810 5811 5812 5813 5814 5815 5816 5816 5817 5818 5819 5819 5819
5800 5800 5800 5800 5800 5800 5800 5800 5800 5800 5800 5799 5799 5800 5801 5802 5804 5805 5805 5805 5805 5806 5805 5804 5803 5803 5804 5803 5803 5803 5803 5802 5802 5804 5804 5805 5805 5805 5805 5805 5804 5804 5805 5805 5805 5806 5806 5807 5808 5809 5810 5811 5812 5813 5814 5815 5815 5815 5815 5815 5816 5817
5798 5799 5798 5798 5799 5799 5799 5799 5799 5799 5798 5798 5799 5800 5800 5801 5802 5803 5803 5803 5803 5804 5803 5802 5802 5803 5803 5802 5802 5802 5802 5801 5800 5802 5802 5803 5803 5803 5803 5803 5802 5802 5803 5804 5804 5805 5806 5806 5807 5807 5808 5809 5811 5811 5812 5813 5813 5813 5813 5812 5814 5815
5797 5797 5797 5797 5798 5798 5797 5797 5797 5798 5798 5798 5799 5799 5799 5799 5800 5802 5802 5802 5802 5802 5802 5801 5802 5803 5802 5802 5801 5801 5801 5801 5800 5801 5801 5800 5801 5801 5801 5802 5802 5801 5801 5803 5804 5804 5805 5805 5805 5806 5807 5808 5809 5810 5811 5811 5812 5812 5811 5810 5811 5812
5796 5796 5796 5796 5797 5797 5796 5795 5796 5797 5797 5798 5798 5798 5798 5799 5799 5800 5801 5802 5802 5802 5801 5801 5801 5801 5801 5801 5800 5799 5800 5800 5800 5800 5800 5799 5799 5799 5799 5800 5801 5801 5800 5801 5803 5803 5804 5804 5805 5806 5806 5807 5808 5809 5810 5810 5810 5810 5809 5808 5808 5809
5794 5795 5795 5795 5795 5795 5795 5795 5795 5795 5796 5797 5797 5797 5797 5798 5799 5800 5800 5801 5802 5801 5801 5800 5800 5800 5799 5799 5799 5799 5799 5799 5799 5798 5798 5797 5797 5798 5797 5797 5798 5800 5800 5800 5801 5802 5802 5803 5804 5805 5806 5806 5807 5808 5808 5808 5808 5808 5807 5806 5805 5806
5793 5793 5793 5794 5794 5794 5794 5794 5794 5794 5794 5795 5795 5796 5796 5797 5798 5798 5799 5800 5801 5801 5800 5799 5799 5799 5798 5798 5798 5798 5798 5797 5796 5796 5797 5797 5796 5796 5796 5796 5797 5799 5800 5800 5800 5800 5801 5802 5803 5804 5805 5806 5806 5806 5807 5807 5807 5806 5806 5805 5804 5806
5791 5792 5792 5792 5792 5793 5793 5792 5792 5793 5793 5793 5794 5794 5795 5795 5796 5797 5798 5799 5799 5799 5799 5798 5798 5798 5797 5797 5796 5796 5795 5795 5794 5794 5795 5796 5795 5795 5796 5796 5797 5799 5800 5800 5800 5800 5800 5801 5802 5804 5804 5805 5805 5805 5806 5805 5805 5805 5804 5804 5804 5805
5790 5790 5790 5791 5791 5791 5791 5791 5791 5792 5792 5792 5793 5794 5794 5794 5795 5796 5797 5797 5797 5797 5797 5797 5797 5797 5796 5795 5794 5793 5793 5792 5792 5793 5795 5795 5796 5796 5796 5796 5798 5799 5799 5799 5800 5801 5800 5800 5801 5803 5803 5804 5804 5805 5805 5803 5803 5804 5804 5804 5803 5803
5788 5788 5789 5789 5789 5789 5790 5790 5790 5790 5791 5791 5792 5793 5793 5794 5795 5795 5796 5796 5796 5796 5796 5796 5796 5796 5795 5794 5793 5791 5791 5791 5791 5792 5794 5795 5795 5795 5794 5795 5796 5798 5799 5799 5799 5800 5800 5800 5801 5802 5802 5803 5804 5804 5804 5803 5802 5803 5804 5803 5803 5803
5788 5787 5787 5788 5787 5788 5788 5789 5789 5789 5790 5790 5791 5792 5793 5794 5795 5795 5795 5795 5795 5795 5795 5795 5795 5795 5795 5794 5792 5791 5790 5789 5790 5792 5793 5793 5794 5794 5793 5794 5795 5796 5797 5797 5798 5798 5799 5800 5800 5800 5801 5802 5803 5803 5803 5802 5801 5802 5802 5802 5802 5802
5787 5786 5786 5786 5786 5786 5787 5787 5788 5788 5788 5789 5789 5790 5792 5793 5794 5794 5794 5794 5794 5794 5794 5794 5793 5794 5794 5793 5792 5791 5790 5788 5789 5791 5792 5792 5792 5793 5793 5793 5794 5795 5796 5796 5797 5798 5798 5798 5798 5799 5800 5801 5802 5802 5802 5802 5801 5800 5800 5800 5801 5801
5785 5785 5784 5784 5784 5784 5785 5785 5786 5786 5787 5787 5788 5789 5790 5791 5792 5792 5792 5793 5792 5792 5792 5792 5792 5792 5792 5792 5792 5791 5789 5787 5788 5790 5791 5791 5791 5791 5792 5793 5793 5794 5794 5795 5795 5796 5797 5796 5796 5797 5798 5799 5800 5800 5800 5800 5800 5799 5799 5799 5799 5800
5783 5783 5783 5783 5783 5783 5783 5784 5784 5785 5785 5786 5787 5788 5789 5789 5790 5790 5790 5791 5791 5791 5791 5791 5791 5791 5791 5791 5791 5790 5789 5787 5787 5788 5789 5790 5790 5790 5791 5791 5792 5792 5793 5794 5794 5794 5795 5795 5796 5797 5797 5798 5798 5798 5798 5798 5798 5798 5798 5798 5798 5798
5781 5780 5780 5781 5781 5781 5782 5782 5783 5783 5784 5785 5785 5786 5787 5787 5788 5788 5788 5789 5789 5789 5789 5790 5790 5790 5790 5790 5790 5789 5789 5787 5787 5787 5788 5788 5788 5788 5789 5789 5790 5791 5792 5793 5793 5794 5795 5794 5795 5796 5796 5796 5796 5796 5797 5797 5797 5798 5797 5797 5797 5798
5778 5779 5778 5778 5779 5779 5780 5780 5781 5782 5782 5783 5783 5784 5785 5785 5786 5786 5786 5787 5787 5788 5788 5789 5789 5789 5789 5789 5789 5789 5788 5788 5787 5786 5786 5786 5786 5786 5787 5788 5789 5789 5790 5791 5792 5794 5794 5794 5794 5795 5794 5794 5794 5794 5795 5797 5797 5798 5797 5796 5796 5797
5775 5775 5775 5775 5775 5776 5777 5778 5779 5779 5780 5780 5781 5782 5782 5783 5784 5784 5785 5785 5786 5786 5787 5787 5787 5788 5788 5788 5788 5788 5787 5787 5786 5786 5785 5784 5784 5785 5785 5787 5788 5789 5789 5790 5791 5792 5793 5793 5794 5793 5792 5792 5792 5791 5793 5796 5796 5796 5796 5796 5796 5796
5773 5772 5772 5773 5772 5773 5775 5776 5777 5777 5778 5778 5779 5779 5780 5781 5782 5782 5783 5783 5784 5784 5785 5786 5786 5787 5787 5787 5787 5786 5786 5786 5785 5785 5785 5784 5784 5784 5784 5785 5787 5789 5789 5789 5790 5791 5792 5793 5792 5791 5790 5791 5791 5790 5792 5794 5794 5794 5795 5795 5795 5795
5770 5770 5770 5771 5769 5770 5772 5773 5774 5775 5775 5776 5777 5778 5779 5779 5780 5780 5781 5781 5782 5783 5783 5784 5785 5785 5786 5786 5786 5785 5785 5784 5784 5784 5784 5784 5784 5784 5784 5784 5786 5787 5788 5789 5790 5791 5791 5791 5791 5790 5789 5789 5789 5788 5790 5791 5791 5793 5793 5794 5794 5793
5767 5767 5768 5769 5766 5766 5769 5770 5772 5773 5774 5774 5775 5776 5777 5778 5778 5779 5779 5780 5780 5781 5782 5783 5784 5784 5785 5785 5785 5785 5784 5783 5783 5783 5782 5783 5783 5784 5784 5784 5785 5786 5787 5788 5789 5789 5790 5789 5789 5788 5788 5788 5787 5786 5787 5788 5789 5790 5791 5791 5792 5792
5764 5763 5764 5766 5763 5763 5766 5768 5770 5771 5772 5773 5774 5774 5775 5776 5776 5777 5778 5779 5779 5780 5781 5781 5782 5783 5783 5783 5784 5783 5783 5782 5782 5782 5781 5781 5782 5782 5783 5783 5784 5784 5785 5786 5786 5786 5787 5787 5787 5786 5786 5787 5787 5786 5786 5786 5787 5787 5788 5789 5790 5790
5761 5760 5762 5765 5762 5761 5765 5767 5768 5770 5770 5771 5772 5773 5773 5774 5775 5776 5776 5777 5778 5779 5780 5780 5781 5781 5782 5782 5782 5782 5782 5781 5781 5781 5781 5780 5780 5781 5781 5782 5782 5782 5782 5782 5783 5783 5783 5783 5784 5784 5785 5785 5786 5785 5784 5784 5784 5784 5785 5786 5786 5788
5762 5763 5765 5766 5764 5762 5764 5766 5767 5768 5769 5770 5771 5771 5772 5773 5774 5775 5775 5776 5777 5778 5778 5779 5779 5780 5780 5780 5780 5780 5780 5780 5780 5780 5780 5779 5779 5779 5779 5780 5780 5780 5780 5780 5780 5780 5780 5781 5781 5782 5783 5783 5784 5785 5783 5782 5782 5782 5783 5783 5783 5784
5764 5765 5766 5766 5766 5764 5765 5766 5767 5768 5768 5769 5769 5770 5771 5771 5773 5773 5774 5775 5776 5776 5777 5777 5778 5778 5779 5779 5779 5779 5779 5779 5779 5778 5778 5778 5778 5778 5777 5778 5778 5778 5778 5778 5778 5779 5779 5779 5779 5781 5781 5781 5782 5783 5781 5781 5781 5780 5780 5780 5779 5780
5763 5763 5763 5763 5764 5765 5766 5766 5767 5768 5768 5768 5768 5768 5769 5770 5771 5772 5773 5774 5774 5775 5775 5776 5776 5776 5777 5777 5777 5777 5777 5777 5777 5777 5777 5777 5776 5776 5775 5775 5776 5776 5776 5776 5777 5777 5777 5778 5778 5779 5779 5779 5780 5780 5779 5779 5779 5778 5777 5778 5778 5778
5760 5761 5761 5761 5761 5763 5764 5765 5766 5767 5767 5767 5767 5767 5768 5768 5769 5770 5771 5772 5773 5773 5773 5774 5774 5774 5774 5775 5775 5775 5775 5775 5775 5775 5775 5775 5775 5774 5774 5774 5774 5774 5774 5774 5775 5775 5775 5776 5776 5776 5776 5777 5777 5778 5778 5777 5777 5777 5776 5776 5776 5776
5756 5758 5759 5760 5760 5762 5763 5764 5764 5765 5765 5765 5766 5766 5766 5767 5767 5768 5769 5770 5771 5771 5771 5771 5771 5771 5772 5772 5773 5773 5773 5773 5773 5773 5773 5773 5773 5772 5772 5772 5772 5772 5772 5772 5772 5773 5773 5773 5774 5774 5774 5774 5775 5775 5776 5776 5775 5775 5775 5774 5774 5774
5754 5756 5757 5758 5759 5760 5762 5764 5763 5763 5763 5764 5765 5765 5765 5765 5765 5766 5767 5768 5769 5769 5769 5769 5769 5769 5769 5770 5770 5770 5770 5770 5771 5771 5771 5771 5771 5771 5770 5770 5770 5770 5770 5770 5771 5771 5771 5771 5772 5772 5772 5772 5772 5773 5773 5773 5773 5773 5773 5773 5773 5773
5754 5755 5755 5756 5757 5758 5760 5761 5762 5761 5762 5762 5763 5763 5763 5763 5764 5765 5765 5766 5766 5767 5767 5766 5766 5766 5767 5767 5767 5767 5767 5768 5768 5768 5768 5768 5769 5769 5769 5769 5769 5769 5769 5769 5769 5769 5769 5770 5770 5770 5770 5770 5771 5771 5771 5771 5772 5772 5772 5771 5771 5771
5753 5754 5754 5754 5755 5756 5757 5758 5759 5759 5760 5760 5761 5761 5761 5762 5762 5763 5764 5764 5765 5765 5765 5764 5764 5764 5764 5765 5765 5765 5765 5766 5766 5766 5766 5766 5767 5767 5767 5767 5767 5768 5768 5768 5768 5768 5768 5768 5768 5768 5769 5769 5769 5769 5769 5770 5770 5770 5770 5770 5770 5769
Wind_Speed
22 21 21 21 20 18 18 21 22 21 22 22 17 16 20 23 26 30 34 36 34 32 30 28 25 22 19 19 19 19 18 18 18 18 18 17 16 16 16 16 17 16 16 16 17 18 19 19 20 20 20 20 20 20 20 19 18 18 19 17 15 16
20 20 19 17 18 18 19 19 18 19 19 19 17 17 18 20 23 25 29 32 30 27 27 24 21 19 18 18 19 19 19 19 20 19 18 17 17 17 17 17 17 17 16 16 17 18 19 20 21 21 21 21 21 22 21 20 19 20 20 16 16 18
19 19 19 18 20 20 19 18 16 18 18 18 19 18 18 19 21 23 26 28 25 23 23 20 18 17 18 19 19 20 20 21 21 20 19 19 18 18 18 17 16 17 17 17 17 19 20 21 22 22 22 22 22 22 22 21 21 22 20 17 18 19
19 19 19 18 19 19 18 19 19 20 21 20 19 18 20 21 21 24 25 24 21 17 16 15 14 16 17 20 21 21 20 20 20 20 20 20 19 19 19 18 17 17 17 17 17 18 20 22 22 22 22 22 22 22 23 23 23 23 20 19 20 20
18 18 19 18 19 20 21 21 20 20 20 19 19 20 21 21 20 22 20 19 16 12 12 13 14 16 19 22 23 22 20 20 20 20 20 20 20 20 19 18 18 17 17 17 17 18 19 21 22 21 21 22 22 22 22 23 23 23 21 20 21 20
19 19 21 22 22 23 24 24 22 20 19 19 21 21 19 16 16 16 15 14 14 14 15 17 17 18 21 22 22 20 20 18 18 18 18 19 19 19 19 18 17 16 16 15 16 17 18 20 21 21 21 21 21 21 22 22 23 23 21 21 21 21
20 22 23 24 23 23 25 25 23 21 21 21 20 17 14 12 11 12 12 13 15 16 16 16 16 17 18 19 18 17 15 14 15 16 17 18 18 18 18 17 15 15 15 15 15 16 17 19 20 20 20 21 20 20 21 22 22 22 21 21 21 22
22 24 24 25 25 25 25 24 22 20 19 18 17 14 12 13 13 13 13 15 15 15 15 15 16 16 16 18 17 14 12 11 13 14 15 17 17 18 18 18 18 16 15 16 16 16 17 17 18 18 19 20 20 20 20 20 21 21 21 21 22 22
24 23 24 25 25 23 23 22 21 19 17 17 16 15 15 15 15 15 16 16 16 16 16 16 16 16 17 18 17 16 13 13 13 12 14 17 18 19 19 19 18 17 16 17 17 16 16 16 16 17 18 18 18 18 19 19 19 20 21 22 22 22
23 22 22 23 21 21 21 21 21 19 17 17 15 14 15 17 15 16 17 15 15 16 16 17 17 16 17 17 16 17 15 14 15 15 15 16 17 18 16 15 15 15 15 16 16 16 15 16 16 17 17 17 17 18 18 18 19 20 21 22 22 22
20 20 19 19 18 19 20 21 20 19 18 17 16 15 16 18 18 18 17 15 14 14 15 16 17 16 16 15 15 15 14 14 16 16 15 14 16 17 14 12 13 13 14 15 15 16 16 16 16 16 16 17 17 17 18 18 18 19 20 22 22 21
18 18 18 17 17 17 17 18 17 17 18 18 16 14 14 15 15 15 15 14 14 14 15 14 14 15 15 14 13 13 13 13 15 15 13 12 14 15 13 11 11 12 13 14 14 15 15 15 16 15 15 15 15 16 17 17 17 18 20 22 22 22
17 17 16 15 14 14 15 16 15 17 19 17 14 12 13 14 13 13 13 13 14 14 14 13 12 13 13 13 12 12 12 13 14 13 12 11 12 12 11 11 12 12 12 12 13 13 13 14 14 15 14 15 15 15 17 18 18 19 20 23 24 23
16 17 16 14 14 14 16 17 17 17 17 15 14 14 15 15 14 13 12 13 14 15 14 12 11 10 10 10 10 11 11 12 12 12 12 12 12 11 10 11 14 12 10 11 12 12 12 13 14 14 14 14 15 16 17 19 20 21 21 23 22 21
16 16 16 15 15 16 17 18 17 16 15 14 15 16 15 14 13 12 11 12 12 13 12 11 9 8 9 9 9 10 11 10 11 12 12 12 12 11 9 11 12 8 6 9 11 11 12 13 13 13 13 14 15 16 18 20 21 21 21 22 22 23
15 16 17 17 17 17 17 16 15 14 14 14 15 15 13 12 12 12 11 11 11 10 10 9 8 7 7 8 9 10 11 10 11 11 12 11 11 10 8 9 8 6 6 8 10 11 12 12 12 12 13 14 15 16 17 19 20 20 21 22 23 24
14 16 18 18 18 17 16 16 15 14 13 14 14 13 12 12 13 13 11 10 10 9 8 7 6 6 7 8 9 11 11 12 11 11 10 9 8 9 9 8 8 8 9 10 10 11 12 12 12 12 13 14 15 15 16 17 19 20 20 21 22 23
14 16 17 18 19 18 17 16 15 14 13 14 14 12 12 12 13 13 11 10 9 8 7 6 6 7 7 8 9 11 13 13 10 10 10 9 8 9 9 8 8 9 9 10 10 11 12 12 11 11 12 13 13 14 15 16 17 19 19 20 21 22
16 16 16 17 19 19 18 16 16 15 14 14 13 12 12 12 13 12 11 9 8 8 7 7 7 8 8 9 10 11 14 14 11 10 11 10 9 8 8 9 9 9 10 11 11 11 11 11 11 11 11 12 12 13 14 14 16 18 18 20 21 21
18 17 17 16 17 18 18 18 18 16 15 13 11 11 12 12 12 11 10 9 8 8 7 7 7 8 9 10 12 13 15 16 14 12 11 11 10 9 9 9 9 10 10 11 10 9 9 10 11 12 11 11 12 13 13 13 15 16 18 19 21 22
20 19 18 16 16 17 18 19 18 16 13 11 10 11 12 12 12 11 10 10 9 8 8 8 7 8 10 11 13 14 16 16 15 14 12 11 11 10 10 9 9 10 10 10 10 9 10 12 12 13 13 13 13 13 13 13 13 14 15 16 18 20
21 21 20 18 17 17 18 18 16 15 14 11 11 11 12 12 12 12 11 10 9 9 9 9 8 9 10 11 14 15 16 17 16 14 13 12 11 10 10 10 10 10 10 10 10 11 13 14 13 14 14 13 12 12 12 12 12 12 13 14 14 16
21 22 23 20 18 18 18 17 16 15 13 12 11 11 11 11 11 11 11 10 10 10 9 9 9 10 10 11 13 15 16 16 16 15 14 13 12 11 10 10 10 10 11 11 11 12 13 14 15 15 16 13 11 12 13 13 13 12 13 13 13 15
22 23 24 22 19 18 18 18 16 14 12 12 12 11 11 11 11 11 11 11 11 10 10 10 10 10 11 11 12 13 14 15 16 16 15 14 13 12 11 10 9 10 12 12 12 13 13 15 16 17 17 14 12 14 13 12 13 13 15 15 13 14
23 23 23 24 21 18 19 18 15 13 12 13 13 12 12 12 12 12 12 12 12 11 11 10 10 9 11 12 12 12 13 13 14 15 15 15 14 14 13 11 9 11 12 12 12 14 14 16 17 18 17 15 14 15 14 12 14 15 15 15 14 14
22 22 23 26 24 19 20 17 14 13 12 13 14 13 13 13 13 13 13 13 13 12 11 11 10 9 10 11 12 12 12 13 13 14 15 15 15 14 15 15 13 13 13 13 13 14 14 15 16 17 17 16 16 17 16 16 16 16 17 16 16 16
21 23 24 27 26 20 18 16 13 13 13 14 14 13 13 13 13 13 13 13 13 12 11 11 10 9 9 10 12 13 14 13 13 14 14 14 15 14 15 16 16 15 15 14 14 14 14 15 15 16 16 16 17 18 18 19 18 18 19 19 17 16
21 24 24 26 22 16 14 13 12 12 13 14 13 13 13 13 12 12 12 11 11 11 11 11 11 10 10 10 11 13 14 14 14 14 14 14 14 14 15 15 16 17 16 15 15 15 14 13 14 16 16 16 17 19 20 20 19 19 20 20 18 17
22 25 25 24 19 14 13 12 11 11 13 13 13 13 13 13 12 11 10 10 10 10 11 11 12 12 12 12 12 12 13 14 14 14 14 14 15 15 16 16 16 16 16 16 15 15 15 15 15 16 16 17 18 19 20 19 19 19 20 20 20 19
18 19 19 20 19 15 13 13 13 13 13 13 14 14 13 13 12 11 11 10 11 11 11 12 12 13 14 14 14 13 13 13 14 15 15 16 17 17 17 17 17 17 17 16 15 15 15 16 16 16 17 18 18 19 20 20 20 21 21 21 21 20
14 15 17 19 18 15 14 14 14 14 13 14 15 14 14 13 13 13 13 13 14 14 14 14 14 15 15 15 16 15 15 15 15 16 17 18 19 18 17 17 18 18 17 16 16 15 14 15 16 16 17 18 18 18 20 21 22 21 20 20 20 21
18 20 22 23 22 19 16 15 16 15 15 16 16 15 14 13 13 14 15 16 16 16 16 16 16 17 17 17 17 17 17 17 18 18 18 19 20 19 19 18 19 19 19 18 17 16 15 15 15 15 16 17 17 18 20 21 22 21 21 20 20 22
21 22 23 24 25 23 19 18 17 16 17 17 16 15 14 13 14 15 16 17 17 17 18 18 19 20 19 19 18 18 18 18 18 19 20 21 21 20 19 19 19 19 19 19 17 16 16 15 15 15 15 16 17 18 19 21 21 22 22 22 22 23
24 22 23 24 25 25 23 21 18 17 19 18 17 16 15 15 16 17 17 18 18 19 20 20 20 20 20 20 19 18 19 19 19 20 21 22 21 19 18 18 18 19 19 18 17 16 15 15 14 14 14 15 16 17 19 20 21 21 22 22 22 23
26 22 23 24 25 27 26 23 20 19 20 20 19 18 17 17 18 18 18 18 18 18 17 17 17 17 18 17 17 17 18 19 20 20 20 19 19 18 18 18 18 18 18 18 17 16 15 14 14 13 14 15 15 16 17 18 19 19 20 20 20 20
28 24 24 25 25 26 27 26 23 21 21 21 21 20 20 19 19 19 18 17 15 14 13 14 14 15 16 16 16 16 16 17 18 18 17 17 17 17 18 18 18 18 18 17 16 15 14 13 13 13 14 14 15 15 16 16 17 17 18 18 18 18
29 28 27 26 26 27 26 28 26 22 22 23 23 23 22 21 20 19 17 15 14 14 14 14 14 15 16 17 17 17 16 16 16 16 16 16 17 17 18 18 18 18 17 16 15 14 13 13 13 13 13 14 14 14 14 15 15 15 16 16 16 16
Wind_Direction
294 292 290 285 275 262 266 274 261 250 259 257 251 256 258 261 263 262 263 261 256 251 252 257 262 263 261 262 267 272 275 279 279 277 275 272 268 265 261 257 254 253 251 251 252 251 248 243 241 239 239 240 241 245 247 250 254 255 257 259 260 263
290 288 283 272 262 263 271 271 253 248 261 256 254 264 259 257 261 264 263 258 254 255 259 260 259 258 258 263 269 272 275 277 277 275 272 269 268 267 261 256 253 253 251 250 250 251 249 245 241 238 238 239 241 244 247 249 251 252 255 257 257 260
285 277 267 260 260 263 266 265 259 260 261 257 260 260 254 259 263 263 260 255 254 258 257 251 252 258 261 266 268 269 273 275 276 274 271 269 267 265 261 256 252 250 250 248 246 247 248 246 243 240 238 238 240 243 246 248 250 252 254 253 252 256
276 260 255 261 258 252 254 261 267 265 259 257 257 253 259 269 265 259 257 250 245 243 236 231 247 264 267 269 270 269 271 273 274 274 272 271 267 265 261 257 252 248 246 245 244 244 246 247 246 244 243 242 243 245 247 248 250 253 254 252 253 257
265 255 255 256 250 252 258 259 262 260 255 256 257 262 269 271 260 251 246 239 239 240 240 249 267 279 275 272 272 269 267 268 270 271 272 271 266 263 260 258 256 250 246 245 244 244 244 247 249 249 248 247 247 248 249 250 252 255 256 254 256 258
263 265 262 257 255 259 259 256 257 254 253 263 269 269 265 262 251 238 235 242 255 262 266 276 285 286 282 279 276 271 269 267 268 269 271 271 267 264 264 261 255 250 248 246 244 245 246 248 251 251 249 249 250 249 250 252 253 256 257 256 257 258
267 268 265 266 264 258 255 255 254 255 260 264 265 261 250 250 243 234 248 263 266 264 270 283 290 287 287 290 284 277 274 269 272 275 273 272 270 267 265 260 255 253 252 249 246 245 247 249 252 253 254 254 253 252 251 252 255 258 258 258 258 257
266 266 267 268 265 258 256 256 253 257 259 251 250 255 252 251 246 247 258 266 268 269 276 283 285 285 290 293 285 276 274 276 283 282 276 276 274 269 264 260 260 260 257 253 248 245 245 248 252 255 257 257 255 255 256 256 259 262 261 258 257 257
264 266 267 265 264 263 259 256 253 253 251 243 250 260 263 261 257 262 265 265 269 273 280 280 279 279 283 288 284 277 277 282 283 273 273 275 271 270 266 260 256 255 255 254 250 246 246 248 251 254 257 258 258 259 260 261 262 263 263 259 258 257
261 263 264 264 265 266 262 258 253 251 250 248 254 262 268 271 270 274 274 275 278 279 281 278 277 277 279 287 289 284 282 282 275 266 270 270 266 267 264 254 249 250 252 254 255 252 249 248 249 251 255 258 260 262 263 263 264 266 267 264 261 260
259 258 258 262 263 263 261 257 251 247 250 252 260 267 269 272 276 277 276 282 289 286 281 277 279 280 278 283 285 283 283 283 277 272 271 266 265 263 253 245 242 247 252 253 256 255 251 251 251 252 254 256 259 261 262 264 265 268 268 265 264 262
260 254 252 257 259 257 253 250 246 246 252 256 262 268 270 272 276 277 276 282 287 285 281 278 280 281 279 281 284 285 284 281 276 274 273 268 267 256 241 238 232 239 253 252 253 255 253 253 254 255 255 256 257 258 261 263 263 264 265 263 262 259
262 252 249 252 251 246 243 245 248 253 259 258 258 266 274 276 277 280 280 278 277 278 279 278 281 284 282 281 284 284 279 274 271 273 274 267 260 248 236 236 233 239 253 253 251 251 252 254 256 255 256 257 256 256 258 258 258 260 262 262 261 259
262 251 247 247 246 243 245 252 256 258 259 258 264 273 278 282 287 288 280 269 264 266 270 275 281 283 280 275 272 273 274 276 276 279 277 263 253 249 246 248 248 245 248 250 246 247 250 252 255 255 257 260 260 259 257 256 256 258 259 262 266 268
262 255 247 244 249 252 254 258 258 257 257 262 273 278 283 289 292 288 274 264 261 263 265 268 272 274 275 270 266 273 279 282 284 282 278 269 263 256 254 265 260 242 239 243 242 253 257 251 253 257 259 259 260 259 257 257 256 257 261 264 269 273
260 254 247 245 250 253 254 255 255 257 260 266 272 276 283 288 285 279 270 268 269 267 264 262 261 260 260 260 268 281 284 284 284 280 276 272 265 254 254 267 256 232 249 249 245 256 255 250 255 257 259 260 259 259 257 259 259 259 262 264 267 271
259 252 246 246 247 245 247 250 251 254 260 266 270 274 278 278 274 271 267 269 269 265 262 260 255 251 253 258 271 285 286 284 284 283 283 272 255 252 258 258 244 249 263 257 254 254 248 255 264 260 262 263 261 262 261 263 265 265 265 265 269 273
259 252 245 243 242 240 244 250 247 247 258 266 271 275 275 271 266 264 262 261 261 262 261 260 256 253 255 256 264 274 278 282 286 289 291 281 263 259 265 266 262 265 264 257 260 258 253 263 268 261 262 265 264 264 263 264 266 267 267 267 269 272
258 250 243 238 235 236 241 245 241 246 261 266 270 275 275 270 263 259 257 255 256 258 258 257 257 257 258 257 258 262 268 275 282 288 290 285 277 269 269 276 278 274 266 262 263 259 262 269 268 265 263 264 265 264 264 265 266 268 269 269 268 270
255 244 239 235 231 233 236 237 239 249 259 261 267 275 273 269 264 260 257 256 255 254 254 254 256 258 257 255 255 255 261 268 275 281 284 281 280 277 272 271 272 272 267 264 260 253 261 271 273 276 273 267 265 263 265 270 272 273 274 273 270 269
252 242 238 236 230 229 231 234 239 247 252 256 266 270 270 269 266 264 262 261 262 260 257 254 253 257 257 254 253 253 257 264 270 274 277 277 277 277 274 273 271 270 265 263 261 256 263 270 271 274 274 269 265 263 265 267 269 274 279 279 274 270
245 246 244 238 231 226 227 232 238 243 248 256 263 266 268 267 263 261 260 261 263 262 260 254 249 250 254 256 256 255 256 261 267 271 275 277 279 280 278 280 278 273 271 270 265 260 262 267 268 269 268 265 262 265 265 265 268 273 277 279 274 270
243 250 247 237 231 227 226 230 236 241 249 257 262 263 262 260 256 254 256 259 259 257 257 254 249 246 249 254 256 257 257 259 263 269 275 278 281 284 283 288 288 285 284 278 267 262 263 266 266 266 268 269 270 271 269 270 274 276 278 278 272 268
247 251 248 238 231 228 227 229 234 240 251 258 261 260 255 253 252 255 258 261 259 254 251 250 250 249 250 252 256 259 260 261 263 266 272 278 281 283 283 288 290 285 282 276 270 272 272 268 264 263 267 274 280 279 278 280 281 280 283 284 277 269
247 249 246 236 227 225 226 228 233 238 247 253 255 255 253 253 256 261 265 264 259 249 242 241 243 248 252 254 255 259 263 266 268 269 271 274 278 281 284 289 288 279 278 276 276 277 273 268 266 265 267 272 277 281 285 286 285 285 285 286 282 271
246 246 241 231 228 227 226 227 230 233 241 247 251 253 253 256 260 265 269 267 260 245 234 231 231 238 251 258 259 261 264 267 270 272 272 272 272 274 279 283 283 278 275 273 271 270 267 266 267 269 271 275 278 281 285 285 285 287 284 285 285 273
236 237 233 227 229 229 225 227 228 229 236 240 246 250 253 259 263 267 269 266 256 243 234 231 230 236 248 259 263 263 265 266 270 272 273 274 274 272 273 275 276 274 272 270 267 266 266 267 270 272 274 278 281 282 285 285 285 287 285 287 287 274
231 233 224 215 222 230 230 233 230 230 235 237 242 247 252 259 261 264 266 260 248 239 237 238 238 243 254 264 267 266 266 266 268 270 271 273 276 277 276 274 274 273 272 273 273 275 276 276 278 278 279 281 282 283 285 284 283 285 285 286 282 272
237 231 214 211 232 247 242 242 238 236 238 238 243 246 250 256 257 259 258 252 245 241 244 247 248 255 265 272 274 274 271 266 265 267 268 272 276 281 281 278 275 273 274 276 279 284 288 289 286 285 287 287 285 286 285 281 282 283 283 282 277 271
238 230 223 235 254 255 246 249 247 244 245 244 248 251 252 255 254 253 251 251 254 254 256 258 261 266 272 276 278 278 277 273 268 266 269 274 279 282 283 280 277 274 274 275 277 281 285 288 286 286 288 287 287 288 284 282 282 281 281 280 276 274
250 250 256 262 266 266 265 263 255 250 249 249 254 256 258 259 256 255 257 262 267 269 269 269 270 272 273 273 274 276 278 278 275 274 275 278 282 283 283 282 280 277 274 273 273 274 276 280 281 283 285 286 288 287 284 285 284 279 278 277 275 279
257 255 258 260 263 267 272 270 264 259 253 251 255 259 261 264 265 266 269 273 277 279 280 281 281 280 278 276 275 276 276 277 278 280 281 283 285 285 284 283 281 279 277 274 273 271 271 274 277 280 284 286 288 287 285 287 286 280 280 279 277 283
257 257 258 262 265 265 263 260 259 257 255 254 255 260 266 270 275 277 279 283 286 288 289 289 288 287 287 285 282 278 275 275 278 280 281 282 284 284 283 283 281 279 278 275 274 273 272 272 275 279 284 287 288 288 287 288 286 283 282 282 281 285
252 256 260 266 271 270 264 256 251 250 252 253 255 260 268 273 277 280 284 288 291 293 293 292 290 290 292 292 288 281 275 274 278 281 280 278 278 280 281 280 280 278 277 276 274 273 273 273 274 277 282 286 288 288 288 288 286 284 283 282 282 283
251 251 258 266 272 273 265 255 250 249 249 253 256 259 265 270 274 278 283 289 293 296 296 293 291 291 292 294 293 287 279 274 274 277 275 273 273 275 277 278 277 276 275 276 275 274 274 276 277 279 281 284 286 287 288 287 284 282 280 279 278 278
259 262 269 270 270 268 260 249 249 252 252 254 257 258 261 266 272 278 283 287 290 293 296 296 292 291 292 294 294 291 282 273 268 268 267 267 269 272 274 274 274 273 272 273 273 274 276 278 281 284 285 286 286 285 284 282 280 278 277 276 276 276
260 267 278 277 269 266 255 242 245 254 253 253 256 258 260 265 270 277 279 278 279 285 291 291 289 289 291 292 292 290 283 274 268 265 266 267 269 270 271 270 270 269 268 269 271 273 276 278 281 283 285 286 285 283 281 279 278 277 277 277 278 278